Weather History for Saginaw Browne, MI

Change the Weather History Date:

Tuesday, April 8, 2014

  Actual Average (KMBS) Record (KMBS)
Temperature  
Mean Temperature 48 °F 43 °F  
Max Temperature 62 °F 53 °F 68 °F (2001)
Min Temperature 35 °F 33 °F 21 °F (1997)
Degree Days  
Heating Degree Days 16    
Month to date heating degree days  
Since 1 July heating degree days  
Cooling Degree Days 0    
Month to date cooling degree days  
Year to date cooling degree days  
Moisture  
Dew Point 30 °F    
Average Humidity 55    
Maximum Humidity 81    
Minimum Humidity 27    
Precipitation  
Precipitation 0.00 in 0.09 in 0.60 in (2013)
Month to date precipitation 0.69  
Year to date precipitation 6.07  
Snow  
Snow 0.00 in - - ()
Month to date snowfall  
Since 1 July snowfall  
Snow Depth -    
Sea Level Pressure  
Sea Level Pressure 29.63 in    
Wind  
Wind Speed 7 mph (NW)    
Max Wind Speed 17 mph    
Max Gust Speed 26 mph    
Visibility 10 miles    
Events      
T = Trace of Precipitation, MM = Missing Value Source: NWS Daily Summary

Daily Weather History Graph

Daily Weather History Graph

Search for Another Location

Airport:

Trip Planner

Search our weather history database for the weather conditions in past years. The results will help you decide how hot, cold, wet, or windy it might be!

Date:

Astronomy

Apr. 08, 2014 Rise Set
Actual Time 7:04 AM EDT 8:10 PM EDT
Civil Twilight 6:35 AM EDT 8:39 PM EDT
Nautical Twilight 6:00 AM EDT 9:14 PM EDT
Astronomical Twilight 5:24 AM EDT 9:51 PM EDT
Moon 1:53 PM EDT (4/8) 3:27 AM EDT (4/8)
Length of Visible Light 14h 04m
Length of Day
13h 05m
Waxing Gibbous, 62% of the Moon is Illuminated
Apr 8
Waxing Gibbous
Apr 15
Full
Apr 22
Last Quarter
Apr 29
New
May 6
First Quarter

Hourly Weather History & Observations

Time (EDT) Temp. Windchill Dew Point Humidity Pressure Visibility Wind Dir Wind Speed Gust Speed Precip Events Conditions
12:15 AM 37.4 °F 32.1 °F 32.0 °F 81% 29.53 in 10.0 mi North 6.9 mph - N/A   Overcast
12:35 AM 37.4 °F 32.8 °F 32.0 °F 81% 29.52 in 10.0 mi North 5.8 mph - N/A   Overcast
12:55 AM 37.4 °F 33.8 °F 30.2 °F 75% 29.51 in 10.0 mi North 4.6 mph - N/A   Overcast
1:15 AM 37.4 °F - 30.2 °F 75% 29.51 in 10.0 mi Calm Calm - N/A   Overcast
1:35 AM 37.4 °F 34.9 °F 30.2 °F 75% 29.51 in 10.0 mi North 3.5 mph - N/A   Overcast
1:55 AM 39.2 °F 35.9 °F 30.2 °F 70% 29.51 in 10.0 mi North 4.6 mph - N/A   Overcast
2:15 AM 37.4 °F 33.8 °F 30.2 °F 75% 29.51 in 10.0 mi NNW 4.6 mph - N/A   Overcast
2:35 AM 37.4 °F 33.8 °F 30.2 °F 75% 29.50 in 10.0 mi NW 4.6 mph - N/A   Overcast
2:55 AM 37.4 °F 32.8 °F 30.2 °F 75% 29.50 in 10.0 mi NW 5.8 mph - N/A   Overcast
3:15 AM 39.2 °F 33.6 °F 30.2 °F 70% 29.50 in 10.0 mi NW 8.1 mph - N/A   Overcast
3:35 AM 37.4 °F 34.9 °F 30.2 °F 75% 29.50 in 10.0 mi NW 3.5 mph - N/A   Overcast
3:55 AM 37.4 °F 33.8 °F 30.2 °F 75% 29.50 in 10.0 mi NW 4.6 mph - N/A   Overcast
4:15 AM 37.4 °F 33.8 °F 30.2 °F 75% 29.50 in 10.0 mi WNW 4.6 mph - N/A   Overcast
4:35 AM 37.4 °F 33.8 °F 28.4 °F 70% 29.51 in 10.0 mi NW 4.6 mph - N/A   Overcast
4:55 AM 37.4 °F 33.8 °F 28.4 °F 70% 29.50 in 10.0 mi NW 4.6 mph - N/A   Overcast
5:15 AM 37.4 °F 32.8 °F 28.4 °F 70% 29.50 in 10.0 mi NW 5.8 mph - N/A   Overcast
5:35 AM 37.4 °F 32.8 °F 28.4 °F 70% 29.51 in 10.0 mi NW 5.8 mph - N/A   Overcast
5:55 AM 37.4 °F 31.4 °F 28.4 °F 70% 29.51 in 10.0 mi NW 8.1 mph - N/A   Overcast
6:15 AM 37.4 °F 30.8 °F 28.4 °F 70% 29.52 in 10.0 mi NW 9.2 mph - N/A   Mostly Cloudy
6:35 AM 37.4 °F 31.4 °F 28.4 °F 70% 29.53 in 10.0 mi NW 8.1 mph - N/A   Scattered Clouds
6:55 AM 35.6 °F 30.7 °F 26.6 °F 70% 29.54 in 10.0 mi NW 5.8 mph - N/A   Scattered Clouds
7:15 AM 35.6 °F 29.9 °F 28.4 °F 75% 29.55 in 10.0 mi NW 6.9 mph - N/A   Clear
7:35 AM 35.6 °F 30.7 °F 28.4 °F 75% 29.57 in 10.0 mi NW 5.8 mph - N/A   Scattered Clouds
7:55 AM 37.4 °F 33.8 °F 28.4 °F 70% 29.58 in 10.0 mi WNW 4.6 mph - N/A   Scattered Clouds
8:15 AM 37.4 °F 32.8 °F 28.4 °F 70% 29.58 in 10.0 mi NW 5.8 mph - N/A   Mostly Cloudy
8:35 AM 39.2 °F 35.0 °F 28.4 °F 65% 29.59 in 10.0 mi NW 5.8 mph - N/A   Scattered Clouds
8:55 AM 41.0 °F 37.1 °F 28.4 °F 61% 29.59 in 10.0 mi NW 5.8 mph - N/A   Scattered Clouds
9:15 AM 42.8 °F 39.3 °F 28.4 °F 57% 29.60 in 10.0 mi NW 5.8 mph - N/A   Clear
9:35 AM 44.6 °F 41.4 °F 26.6 °F 49% 29.60 in 10.0 mi NW 5.8 mph - N/A   Scattered Clouds
9:55 AM 44.6 °F 39.2 °F 28.4 °F 53% 29.61 in 10.0 mi NW 10.4 mph - N/A   Mostly Cloudy
10:15 AM 46.4 °F 44.3 °F 26.6 °F 46% 29.61 in 10.0 mi NW 4.6 mph - N/A   Mostly Cloudy
10:34 AM 46.4 °F 42.9 °F 26.6 °F 46% 29.62 in 10.0 mi WNW 6.9 mph - N/A   Overcast
10:55 AM 48.2 °F - 26.6 °F 43% 29.63 in 10.0 mi West 9.2 mph - N/A   Overcast
11:15 AM 50.0 °F - 26.6 °F 40% 29.63 in 10.0 mi WNW 8.1 mph - N/A   Overcast
11:34 AM 50.0 °F - 24.8 °F 37% 29.64 in 10.0 mi WNW 9.2 mph - N/A   Overcast
11:55 AM 50.0 °F - 23.0 °F 35% 29.64 in 10.0 mi NW 5.8 mph - N/A   Overcast
12:15 PM 53.6 °F - 24.8 °F 33% 29.64 in 10.0 mi WNW 3.5 mph - N/A   Mostly Cloudy
12:35 PM 57.2 °F - 24.8 °F 29% 29.64 in 10.0 mi WNW 6.9 mph - N/A   Scattered Clouds
12:55 PM 59.0 °F - 26.6 °F 29% 29.64 in 10.0 mi West 11.5 mph - N/A   Clear
1:15 PM 59.0 °F - 28.4 °F 31% 29.64 in 10.0 mi WNW 13.8 mph 18.4 mph N/A   Clear
1:35 PM 59.0 °F - 30.2 °F 34% 29.64 in 10.0 mi WNW 11.5 mph 23.0 mph N/A   Clear
1:55 PM 60.8 °F - 30.2 °F 31% 29.64 in 10.0 mi WNW 13.8 mph 19.6 mph N/A   Scattered Clouds
2:14 PM 60.8 °F - 30.2 °F 31% 29.64 in 10.0 mi WNW 12.7 mph 21.9 mph N/A   Clear
2:35 PM 60.8 °F - 28.4 °F 29% 29.63 in 10.0 mi NW 16.1 mph 21.9 mph N/A   Clear
2:55 PM 60.8 °F - 30.2 °F 31% 29.63 in 10.0 mi NW 15.0 mph 19.6 mph N/A   Scattered Clouds
3:14 PM 60.8 °F - 30.2 °F 31% 29.63 in 10.0 mi NNW 12.7 mph 19.6 mph N/A   Scattered Clouds
3:35 PM 62.6 °F - 28.4 °F 27% 29.64 in 10.0 mi WNW 9.2 mph 26.5 mph N/A   Scattered Clouds
3:55 PM 60.8 °F - 28.4 °F 29% 29.63 in 10.0 mi NNW 13.8 mph 19.6 mph N/A   Clear
4:14 PM 62.6 °F - 28.4 °F 27% 29.64 in 10.0 mi WNW 11.5 mph 21.9 mph N/A   Scattered Clouds
4:35 PM 60.8 °F - 30.2 °F 31% 29.64 in 10.0 mi WNW 15.0 mph 24.2 mph N/A   Scattered Clouds
4:55 PM 59.0 °F - 28.4 °F 31% 29.64 in 10.0 mi WNW 12.7 mph 21.9 mph N/A   Scattered Clouds
5:15 PM 59.0 °F - 30.2 °F 34% 29.65 in 10.0 mi NW 11.5 mph - N/A   Scattered Clouds
5:35 PM 59.0 °F - 30.2 °F 34% 29.66 in 10.0 mi NW 12.7 mph - N/A   Mostly Cloudy
5:53 PM 59.0 °F - 32.0 °F 36% 29.66 in 10.0 mi NNW 16.1 mph 19.6 mph N/A   Overcast
6:15 PM 57.2 °F - 32.0 °F 38% 29.67 in 10.0 mi NW 17.3 mph 20.7 mph N/A   Mostly Cloudy
6:35 PM 57.2 °F - 32.0 °F 38% 29.68 in 10.0 mi NW 13.8 mph - N/A   Mostly Cloudy
6:55 PM 53.6 °F - 33.8 °F 47% 29.70 in 10.0 mi NNE 9.2 mph - N/A   Overcast
7:15 PM 51.8 °F - 35.6 °F 54% 29.71 in 10.0 mi North 3.5 mph - N/A   Mostly Cloudy
7:35 PM 51.8 °F - 35.6 °F 54% 29.72 in 10.0 mi North 5.8 mph - N/A   Overcast
7:55 PM 51.8 °F - 35.6 °F 54% 29.73 in 10.0 mi North 6.9 mph - N/A   Overcast
8:15 PM 50.0 °F - 35.6 °F 58% 29.74 in 10.0 mi NNE 6.9 mph - N/A   Overcast
8:35 PM 48.2 °F - 35.6 °F 62% 29.76 in 10.0 mi NNE 4.6 mph - N/A   Overcast
8:54 PM 46.4 °F 43.5 °F 35.6 °F 66% 29.77 in 10.0 mi NNW 5.8 mph - N/A   Overcast
9:15 PM 46.4 °F 45.2 °F 35.6 °F 66% 29.78 in 10.0 mi North 3.5 mph - N/A   Overcast
9:35 PM 46.4 °F 44.3 °F 35.6 °F 66% 29.79 in 10.0 mi NNW 4.6 mph - N/A   Overcast
9:55 PM 44.6 °F 40.7 °F 35.6 °F 71% 29.80 in 10.0 mi North 6.9 mph - N/A   Mostly Cloudy
10:15 PM 44.6 °F 39.7 °F 33.8 °F 66% 29.81 in 10.0 mi NW 9.2 mph - N/A   Scattered Clouds
10:35 PM 44.6 °F 39.7 °F 32.0 °F 61% 29.81 in 10.0 mi NW 9.2 mph - N/A   Clear
10:55 PM 44.6 °F 40.2 °F 32.0 °F 61% 29.81 in 10.0 mi NNW 8.1 mph - N/A   Scattered Clouds
11:15 PM 42.8 °F 38.6 °F 32.0 °F 66% 29.81 in 10.0 mi NW 6.9 mph - N/A   Scattered Clouds
11:35 PM 42.8 °F 37.5 °F 32.0 °F 66% 29.82 in 10.0 mi NW 9.2 mph - N/A   Scattered Clouds
11:55 PM 42.8 °F 37.0 °F 32.0 °F 66% 29.83 in 10.0 mi NNW 10.4 mph - N/A   Clear